RH
17 17 17 16 16 17 17 17 18 18 18 19 19 20 20 19 19 18 17 16 16 16 15 14 12 10 9 9 7 6 6 6 6 5 5 6 6 6 5 5 7 8 10 14 19 25 29 32 30 29 30 32 35 40 51 56 58 59 62 68 67 63 63 61 59 59 58 56 49 50 55 54 52 47 47 51 49 47 47 47 46 47 49 46 42 42 43 45
16 16 16 16 16 16 16 16 15 15 15 15 16 17 18 18 19 18 17 17 16 16 16 15 14 12 10 10 9 7 6 6 6 5 5 6 6 6 6 5 5 6 8 11 18 23 26 30 30 30 28 31 38 41 45 51 55 55 59 69 67 60 62 60 61 61 55 56 53 50 55 54 51 45 47 55 53 50 50 48 50 50 48 44 41 43 42 42
16 16 16 16 16 16 16 16 16 16 15 14 14 14 15 16 16 17 17 17 16 16 15 16 15 14 12 10 9 8 5 6 7 6 6 7 6 6 6 5 5 5 7 9 16 21 22 24 27 29 30 34 40 42 43 46 51 53 53 65 68 59 60 61 62 59 53 59 58 49 51 53 50 46 49 55 53 54 55 52 53 48 42 40 39 43 43 42
12 13 14 14 15 15 16 16 16 16 16 15 15 14 14 14 14 15 16 16 17 16 16 16 16 15 14 11 10 8 7 8 8 6 6 7 6 6 5 5 5 4 5 7 13 18 20 21 23 28 34 38 39 40 42 42 48 52 50 57 63 58 60 61 60 57 51 56 58 48 46 49 50 47 48 52 51 54 56 57 56 46 39 38 37 40 41 42
8 9 10 11 11 12 13 14 15 15 16 16 15 15 14 14 13 13 14 15 16 17 16 16 16 16 15 13 11 8 8 9 8 7 7 7 6 6 6 5 5 4 4 6 11 15 18 20 24 30 38 42 40 40 41 41 44 48 50 54 58 59 62 63 60 58 54 55 57 48 45 51 51 46 46 49 50 52 55 60 57 44 40 38 35 37 38 39
7 7 7 7 8 9 10 11 12 13 14 15 15 16 15 15 14 13 13 14 16 17 17 16 16 16 15 15 12 9 8 9 9 9 8 7 7 7 6 6 5 5 4 6 10 12 15 21 28 33 38 42 43 42 41 41 42 45 48 52 54 57 60 62 60 60 57 57 57 50 48 53 51 47 48 47 47 50 52 58 57 46 41 39 36 35 35 37
6 6 6 7 7 7 7 8 9 10 11 12 13 15 15 15 15 14 13 14 15 17 17 17 16 16 15 15 13 11 10 9 8 9 8 7 7 6 6 7 6 5 5 6 8 11 16 22 30 34 37 39 41 43 45 45 43 44 47 49 52 53 54 57 57 55 54 53 55 50 47 50 49 48 50 49 48 48 50 55 55 47 42 40 39 36 34 37
5 5 6 6 6 7 6 6 7 7 8 9 11 12 13 15 15 15 14 14 16 17 18 18 17 16 15 14 15 15 13 8 6 7 7 6 6 6 6 6 7 5 6 7 7 13 19 24 30 34 36 37 37 41 46 48 46 45 47 48 52 53 55 59 55 50 49 50 52 49 44 47 48 46 49 52 51 49 50 53 51 48 44 41 40 37 35 36
5 5 5 5 5 6 6 6 6 6 6 7 8 9 10 12 14 15 15 16 17 18 19 19 18 16 15 14 16 16 13 9 7 7 6 6 6 6 6 6 6 5 7 7 7 16 24 24 30 33 35 36 34 38 43 47 48 47 47 47 49 51 57 62 55 48 48 49 52 50 45 44 45 44 47 50 50 49 49 51 48 45 43 40 40 39 37 37
6 6 5 5 5 5 5 5 6 6 6 6 6 7 8 9 11 13 14 16 18 19 20 19 18 18 16 16 16 15 12 9 8 7 7 6 6 6 7 7 7 6 9 8 7 18 24 23 27 31 35 35 32 35 38 41 45 47 48 48 48 47 51 56 55 51 49 51 52 50 46 45 45 44 46 47 50 53 51 49 45 41 40 37 37 37 37 37
6 6 6 6 6 5 5 5 5 5 6 6 6 6 6 7 8 10 12 15 17 19 20 19 19 20 18 17 17 15 13 11 9 9 8 7 7 6 6 9 9 8 10 9 8 17 21 20 24 29 33 34 31 32 34 36 41 46 47 48 48 47 47 49 54 54 51 51 51 49 48 48 45 42 46 51 53 55 55 52 46 41 41 37 35 37 36 35
6 6 6 6 6 5 5 5 5 5 5 5 6 6 6 6 7 8 9 12 15 18 20 20 21 21 20 20 18 16 14 12 11 11 11 10 8 7 7 10 10 9 10 9 9 16 18 18 21 25 29 30 29 30 33 34 37 42 45 48 50 49 49 47 50 53 50 50 51 49 48 50 47 42 45 51 55 56 55 54 50 45 44 39 37 38 37 34
7 6 6 6 6 6 5 5 5 5 5 4 5 5 6 6 6 7 7 9 12 15 17 19 21 21 22 22 20 17 15 13 12 12 13 12 9 8 9 10 10 10 10 8 12 16 16 16 17 19 25 27 27 27 31 34 35 38 42 48 51 50 49 47 47 50 50 50 52 50 48 50 48 44 44 46 54 57 53 54 55 50 46 44 40 38 38 35
7 6 6 6 6 6 6 5 5 5 5 5 5 4 5 5 6 7 8 9 10 13 15 18 20 23 26 23 20 18 16 15 14 12 12 11 9 9 9 10 10 10 10 9 13 17 15 14 14 16 20 23 25 27 28 32 35 38 41 45 48 47 46 46 46 47 48 49 50 50 49 48 45 45 46 45 53 57 53 55 56 52 51 49 45 40 37 34
7 6 6 6 6 6 6 5 5 5 5 5 5 4 5 6 7 8 10 9 10 11 13 15 18 24 27 24 20 19 17 16 14 13 12 10 11 11 11 11 10 10 10 10 14 17 15 13 13 14 17 19 22 27 29 29 31 35 39 41 41 42 43 43 44 43 44 47 49 49 48 46 43 44 46 47 54 58 55 56 53 51 51 49 47 43 37 35
6 6 6 6 6 6 6 6 6 5 5 5 5 5 8 10 10 10 11 12 11 11 12 16 18 22 24 23 21 19 18 17 15 14 13 10 10 13 15 13 11 11 12 12 14 17 16 14 13 13 14 16 18 24 30 30 29 31 34 36 37 38 39 40 42 42 41 44 46 47 45 44 44 44 44 46 54 57 54 56 53 50 48 47 49 45 38 37
6 6 6 6 5 5 6 5 5 5 5 5 5 7 10 11 11 10 14 15 14 13 14 18 21 22 20 19 20 20 20 19 17 15 14 11 10 13 19 18 15 15 15 15 16 17 17 15 14 13 13 14 16 21 29 30 29 29 29 31 33 34 37 38 40 41 40 41 44 45 43 43 45 45 44 46 51 57 55 54 53 51 49 46 47 45 40 39
6 6 6 6 5 5 5 5 5 5 6 7 7 9 12 12 10 11 18 20 18 18 17 20 21 20 19 19 20 21 20 19 18 16 14 13 10 13 21 21 18 18 17 17 17 16 17 16 15 14 13 13 15 19 23 24 25 27 27 28 29 30 35 38 37 38 39 40 42 44 42 43 45 45 46 47 50 58 57 51 50 52 51 48 44 43 42 42
7 7 6 6 6 5 5 5 5 5 7 10 9 10 12 12 10 14 20 21 22 21 20 24 22 16 17 19 20 21 21 19 19 18 16 15 11 15 23 23 21 21 19 17 17 16 17 18 16 15 13 12 13 16 17 19 22 26 26 25 26 26 30 35 34 34 37 40 41 42 42 42 43 44 45 45 47 55 57 53 50 49 51 51 45 42 43 44
7 7 6 6 6 5 5 5 5 6 8 11 11 10 10 9 9 14 16 15 16 15 15 20 19 14 15 18 20 21 21 20 20 18 18 17 14 17 23 23 21 21 19 17 17 17 18 20 17 14 14 13 13 14 17 21 21 22 25 25 25 24 26 31 32 32 36 40 43 43 42 42 42 43 43 44 48 53 53 55 53 47 47 50 46 43 43 43
7 7 7 7 6 5 5 5 6 7 9 11 12 10 9 9 9 10 12 11 11 11 10 11 11 11 13 15 18 20 20 20 20 20 18 18 17 20 22 21 21 21 19 18 19 19 19 20 17 14 13 13 13 14 17 23 22 19 22 24 27 29 28 28 29 31 35 39 41 42 42 40 42 43 43 45 50 51 50 52 53 49 45 47 47 44 42 42
7 6 7 6 6 6 5 6 7 7 9 11 12 10 8 9 9 10 11 11 10 10 10 10 10 9 9 11 14 17 18 19 20 20 18 19 21 22 22 22 22 21 20 20 20 19 19 17 16 15 13 13 14 14 15 19 21 19 18 21 25 29 30 28 28 31 33 36 39 40 40 38 40 44 44 46 45 46 47 49 52 52 48 46 47 45 43 40
7 7 6 6 6 6 5 7 8 7 8 11 11 9 8 9 9 10 12 11 10 10 9 9 10 9 8 9 11 14 15 17 19 20 19 20 22 22 23 24 22 21 21 21 18 17 17 15 15 15 14 14 13 15 16 16 19 21 19 17 18 24 29 28 27 29 30 33 34 36 37 38 40 42 43 44 44 43 45 46 48 50 49 46 46 45 44 41
7 7 6 6 6 5 5 8 9 7 8 11 10 9 8 9 9 10 12 12 10 10 10 8 8 9 8 7 8 11 12 14 17 20 19 20 22 21 22 24 23 21 21 20 16 15 14 13 13 14 13 13 13 15 18 18 18 20 20 17 14 18 26 26 24 25 26 30 34 34 37 40 40 41 41 42 44 43 43 44 43 45 49 48 44 44 43 41
7 7 7 6 6 5 5 8 8 6 9 11 9 8 8 8 9 11 12 13 12 9 10 10 8 8 8 8 8 8 9 12 14 18 19 19 21 21 21 23 23 22 20 18 16 14 12 12 12 13 12 12 14 15 17 19 20 20 19 17 14 14 20 25 24 23 24 28 32 33 35 39 38 39 40 41 41 41 40 42 42 41 46 47 42 44 44 42
7 7 7 6 7 5 5 7 8 9 11 11 9 8 8 8 10 10 13 19 18 10 9 11 10 8 7 8 7 7 10 11 10 15 18 18 20 21 20 22 22 22 20 19 18 14 12 13 15 16 13 11 14 15 16 18 21 21 18 15 14 12 15 22 23 23 24 24 27 30 33 35 35 37 40 38 38 40 39 40 41 40 42 43 41 42 45 44
8 8 7 7 6 7 7 7 9 12 12 10 9 8 8 9 9 10 18 25 19 11 11 12 11 10 9 8 7 8 10 10 8 12 16 17 18 19 20 20 20 21 20 20 20 16 13 14 16 17 16 14 15 15 16 17 18 18 16 13 13 12 13 17 21 23 23 22 24 27 32 33 32 34 36 34 33 36 36 36 39 40 40 40 40 40 44 44
9 8 7 7 6 9 12 9 12 15 12 9 9 9 8 9 9 11 24 29 18 13 16 14 13 12 12 12 9 8 9 10 10 10 14 17 16 17 18 18 19 20 20 20 18 16 14 13 15 17 18 17 16 15 15 17 17 15 13 12 11 11 12 12 16 20 22 23 24 25 28 30 30 31 32 32 29 29 30 30 33 38 37 38 40 38 41 44
9 9 8 8 6 9 12 12 13 14 11 9 10 11 9 9 11 14 26 27 14 15 19 16 16 15 15 15 12 10 10 11 12 10 12 16 15 15 17 18 19 19 20 20 18 18 17 14 14 16 17 17 15 14 14 15 15 13 12 12 11 10 10 10 11 15 20 22 23 24 23 25 29 30 30 31 27 24 26 25 26 36 38 37 40 39 38 42
11 10 10 9 8 9 11 12 14 12 11 11 11 12 9 10 13 19 32 28 11 14 19 18 20 19 17 17 14 14 13 12 13 13 13 15 16 16 16 18 19 19 20 21 20 20 19 17 16 16 16 17 16 14 13 14 13 12 12 11 11 9 9 9 8 10 14 15 16 19 21 24 26 25 27 31 27 22 25 26 26 34 39 38 41 41 38 38
12 12 12 11 12 12 12 15 15 12 13 12 11 11 10 13 17 20 28 23 13 19 24 24 26 24 22 22 18 16 16 14 14 17 17 16 17 17 17 19 20 19 22 23 22 22 21 21 19 17 15 16 18 16 14 13 12 11 12 11 11 10 8 9 9 8 10 11 10 12 18 23 21 17 19 26 26 21 23 28 30 34 36 35 38 42 41 38
13 13 14 15 16 16 18 19 16 14 14 13 12 11 11 18 20 20 20 16 19 30 31 29 29 26 27 26 22 19 18 17 16 18 21 20 19 19 17 18 19 19 21 23 23 23 22 20 19 19 17 16 18 18 14 13 12 12 12 12 11 11 10 11 12 11 9 9 8 9 13 16 14 12 14 18 21 19 19 23 28 34 35 31 33 38 41 41
15 14 17 21 20 20 21 19 15 14 14 12 14 15 18 22 22 21 19 18 29 36 31 31 29 27 28 27 25 23 20 19 17 18 23 23 22 21 17 17 18 19 19 21 23 22 21 20 20 20 19 16 17 18 16 14 12 13 13 13 11 11 12 14 14 14 13 11 9 9 10 11 9 9 10 12 14 15 18 21 25 31 32 28 30 35 37 39
16 17 22 24 22 21 20 16 14 15 14 15 18 21 25 29 23 19 18 25 38 38 31 32 30 28 29 27 27 25 22 22 19 19 23 24 24 24 20 18 18 19 20 21 22 21 21 21 19 18 19 18 17 17 17 14 13 14 13 12 11 10 13 15 14 15 14 12 10 9 9 9 9 9 8 8 9 11 15 21 24 28 27 25 29 34 35 38
19 21 25 25 24 24 22 17 16 16 16 19 24 27 32 33 25 21 26 38 44 35 30 32 30 31 31 28 28 26 24 25 23 22 24 24 25 24 22 19 17 19 21 22 22 21 22 21 17 17 19 19 18 17 17 16 15 14 13 11 10 10 12 13 13 12 12 10 10 9 9 8 7 8 8 7 8 8 10 15 20 26 29 27 27 31 32 36
22 24 26 27 31 31 24 18 17 18 22 26 30 34 39 41 36 35 44 51 45 32 28 31 32 36 37 33 31 28 28 29 28 28 27 25 25 24 23 20 18 19 20 20 21 21 21 20 18 19 20 19 19 19 18 16 15 14 12 11 10 10 11 11 13 13 11 11 10 9 9 9 8 8 8 7 8 8 9 10 13 20 28 26 24 27 27 30
25 26 29 33 37 33 23 18 19 25 31 34 38 43 46 49 51 53 58 59 47 34 30 32 38 46 48 47 41 36 36 37 36 35 30 26 25 23 24 23 20 20 20 20 22 22 21 20 20 19 19 20 19 19 19 16 15 14 12 11 10 10 10 11 14 15 15 15 13 12 12 12 12 10 8 8 9 8 9 9 9 14 24 24 20 24 26 29
31 31 35 39 39 30 21 20 26 33 37 39 48 53 51 54 57 57 61 62 53 44 38 36 42 50 53 54 52 47 45 42 40 39 34 30 29 25 25 26 24 22 21 20 23 24 24 24 24 20 19 20 20 21 21 18 15 14 13 12 11 10 12 12 12 15 18 19 17 17 17 16 15 13 10 9 9 9 9 9 9 10 17 19 19 25 28 28
39 40 41 41 39 32 23 25 33 37 37 41 48 48 47 53 57 54 54 56 54 51 45 42 46 52 55 56 55 51 47 44 42 42 39 36 36 34 33 33 31 27 23 23 23 24 27 28 28 24 20 21 22 22 22 20 17 16 14 14 13 11 12 13 12 12 15 20 22 20 18 16 16 15 12 10 10 10 9 10 9 9 12 14 18 26 28 24
47 47 47 45 42 33 24 32 43 39 33 40 48 45 43 49 55 56 53 53 51 47 45 45 45 50 56 58 56 55 55 53 50 46 44 43 43 44 41 37 36 34 29 26 23 23 28 29 28 26 24 25 23 20 20 20 18 16 15 16 15 13 12 12 12 10 11 17 23 24 20 15 14 14 14 14 13 11 10 10 9 9 10 12 15 21 24 23
52 50 51 47 41 32 28 41 49 37 32 43 49 46 43 45 52 57 57 56 54 50 49 46 41 44 53 59 62 66 66 62 59 54 50 50 51 51 48 42 38 37 32 28 24 23 28 30 29 28 28 26 22 18 19 20 18 15 15 16 16 14 12 13 13 11 10 12 17 22 21 17 15 15 15 17 16 12 10 11 10 9 9 11 13 16 20 22
55 53 51 47 43 36 36 49 49 36 35 43 44 40 42 44 48 52 55 56 56 56 55 50 42 42 48 55 64 69 70 67 65 62 57 57 59 55 51 48 42 38 38 33 25 22 27 31 31 29 29 27 24 21 19 19 20 17 15 16 16 14 13 13 14 13 11 10 11 15 19 19 18 16 15 17 16 12 10 11 10 10 9 10 11 13 17 20
59 58 55 51 48 42 44 53 50 41 38 39 39 40 42 45 47 50 54 55 53 52 51 48 45 42 45 54 61 64 67 69 67 66 63 63 64 58 52 51 46 43 45 40 31 26 29 34 36 33 30 27 24 24 23 21 21 19 16 16 16 15 14 13 13 13 13 11 10 12 17 20 21 19 17 17 16 13 11 10 10 10 9 12 13 13 16 18
64 63 58 56 54 47 50 55 49 44 42 37 39 40 39 43 47 49 51 48 46 46 44 44 46 45 46 54 59 59 62 68 71 71 71 71 70 61 54 54 50 47 48 44 41 37 34 36 38 34 35 31 25 27 29 25 22 21 18 16 15 16 16 16 14 14 15 14 12 12 14 19 21 18 16 16 15 14 13 10 11 10 9 12 15 15 18 20
71 66 59 60 60 53 55 55 48 46 44 40 39 37 38 46 45 42 45 44 40 40 40 40 45 48 47 49 58 61 58 63 73 77 79 80 75 66 59 58 56 52 49 47 47 44 38 39 40 36 38 36 27 27 29 24 22 21 19 18 16 15 17 19 17 16 17 19 17 13 13 18 19 14 15 14 12 14 14 9 10 12 11 14 18 20 21 22
78 71 64 65 64 57 57 58 51 46 44 43 41 38 45 51 41 37 46 50 46 42 40 38 42 49 49 44 54 62 59 62 73 80 83 83 77 69 63 60 58 54 50 51 53 47 39 40 42 38 37 37 33 31 30 26 23 21 19 19 17 14 17 20 19 17 18 21 22 18 16 20 18 13 14 14 10 13 13 10 12 14 14 17 20 20 22 24
81 78 75 73 70 62 60 59 54 49 47 46 44 42 47 48 39 39 47 51 51 47 44 42 39 46 53 50 53 61 64 68 74 77 81 81 78 72 65 62 60 55 51 53 54 49 43 41 40 37 38 42 41 38 36 33 30 25 21 20 18 15 16 19 19 19 21 23 26 25 22 23 22 18 16 13 10 13 14 12 14 15 16 19 20 19 21 24
85 85 83 81 78 72 67 63 57 53 49 49 48 46 49 49 44 45 46 45 48 49 50 51 44 45 54 55 53 60 67 73 75 73 75 79 79 75 70 67 62 53 51 55 55 52 48 44 39 38 40 43 42 40 38 36 33 29 26 22 20 18 16 16 18 20 22 24 27 28 26 27 27 22 16 12 11 13 16 16 16 15 16 18 19 20 22 24
89 89 87 85 83 78 74 70 62 55 55 56 54 53 57 56 50 48 45 40 42 47 51 53 49 47 53 54 53 59 68 75 76 73 72 76 78 78 78 75 64 54 52 56 56 52 46 42 39 40 42 42 40 39 38 37 34 32 29 24 22 22 18 16 18 20 24 24 25 28 28 27 27 22 16 14 12 12 15 18 18 17 17 17 17 17 20 23
93 93 92 91 87 81 77 74 68 62 60 62 62 62 62 57 52 50 47 44 49 55 53 50 50 51 54 55 53 55 64 72 76 74 73 74 76 79 83 79 71 63 58 58 58 50 43 42 41 42 45 44 40 38 39 40 37 33 31 27 23 23 22 20 19 20 24 26 24 26 29 28 25 22 18 16 15 14 14 17 19 19 18 16 15 17 20 22
97 97 97 96 92 84 79 77 72 67 63 64 69 69 62 54 53 52 49 48 56 63 58 50 50 51 51 53 54 55 62 69 72 73 74 74 73 76 81 80 74 70 64 63 60 50 46 49 46 45 48 46 41 39 38 39 39 36 34 31 26 24 24 24 22 20 23 27 26 25 29 30 27 26 23 19 17 17 16 16 16 17 17 15 14 15 20 22
97 97 98 99 95 86 82 80 76 72 67 65 68 68 59 53 54 54 53 49 50 58 59 52 50 51 52 54 55 55 61 66 67 68 71 71 69 72 77 78 74 71 68 64 57 50 52 56 52 49 49 43 41 41 38 41 45 42 36 34 31 28 26 26 25 23 22 26 28 27 29 30 28 29 29 24 19 18 18 17 17 17 17 16 14 15 17 19